Location: Unspecified
(51.3762°N, 0.0000°E)
Time: 03:41:06
(UTC+00:00)

Tiangong 2 - Pass Details

Date: 23 May 2019
Orbit: 376 x 388 km, 42.8° (Epoch: 25 June)

Event Time Altitude Azimuth Distance (km) Brightness Sun altitude
Rises 21:08:59 0° 242° (WSW) 2,233 5.1 -9.1°
Reaches altitude 10° 21:11:29 10° 222° (SW) 1,382 3.8 -9.4°
Maximum altitude 21:13:37 17° 178° (S) 1,038 2.8 -9.6°
Enters shadow 21:14:42 15° 153° (SSE) 1,138 2.8 -9.7°
